Weather History for Dauphin, MB

Change the Weather History Date:

Saturday, August 17, 2013

  Actual Average Record
Temperature  
Mean Temperature 72 °F -  
Max Temperature 78 °F 69 °F 102 °F (2003)
Min Temperature 66 °F 45 °F 39 °F (2007)
Cooling Degree Days 7    
Growing Degree Days 22 (Base 50)    
Moisture  
Dew Point 64 °F    
Average Humidity 71    
Maximum Humidity 88    
Minimum Humidity 53    
Precipitation  
Precipitation 0.00 in 0.08 in - ()
Sea Level Pressure  
Sea Level Pressure 29.77 in    
Wind  
Wind Speed 13 mph ()    
Max Wind Speed 25 mph    
Max Gust Speed 37 mph    
Visibility 7.7 miles    
Events Thunderstorm    
Averages and records for this station are not official NWS values.
T = Trace of Precipitation, MM = Missing Value Source: Averaged Metar Reports

Daily Weather History Graph

Daily Weather History Graph

Search for Another Location

Airport:

Trip Planner

Search our weather history database for the weather conditions in past years. The results will help you decide how hot, cold, wet, or windy it might be!

Date:

Astronomy

Aug. 17, 2013 Rise Set
Actual Time 6:30 AM CDT 8:56 PM CDT
Civil Twilight 5:53 AM CDT 9:33 PM CDT
Nautical Twilight 5:07 AM CDT 10:19 PM CDT
Astronomical Twilight 4:12 AM CDT 11:13 PM CDT
Moon 6:24 PM CDT (8/17) 2:22 AM CDT (8/17)
Length of Visible Light 15h 39m
Length of Day
14h 26m
Waxing Gibbous, 84% of the Moon is Illuminated
Aug 17
Waxing Gibbous
Aug 20
Full
Aug 28
Last Quarter
Sep 5
New
Sep 12
First Quarter

Hourly Weather History & Observations

Time (CDT) Temp. Dew Point Humidity Pressure Visibility Wind Dir Wind Speed Gust Speed Precip Events Conditions
12:00 AM 75.2 °F 60.8 °F 61% 29.78 in 9.0 mi SW 17.3 mph 28.8 mph N/A   Clear
1:00 AM 75.2 °F 60.8 °F 61% 29.78 in 9.0 mi SW 17.3 mph 31.1 mph N/A   Scattered Clouds
2:00 AM 73.4 °F 59.0 °F 61% 29.77 in 9.0 mi SW 17.3 mph 27.6 mph N/A   Clear
3:00 AM 73.4 °F 59.0 °F 61% 29.76 in 9.0 mi SW 16.1 mph 24.2 mph N/A   Clear
4:00 AM 73.4 °F 59.0 °F 61% 29.75 in 9.0 mi WSW 10.4 mph 21.9 mph N/A   Scattered Clouds
4:44 AM 73.4 °F 59.0 °F 61% 29.75 in 9.0 mi SW 19.6 mph 25.3 mph N/A Thunderstorm Mostly Cloudy
4:51 AM 73.4 °F 59.0 °F 61% 29.74 in 8.0 mi SW 18.4 mph 29.9 mph N/A Thunderstorm Thunderstorm
5:00 AM 75.2 °F 57.2 °F 53% 29.73 in 6.0 mi SW 25.3 mph 36.8 mph N/A Thunderstorm Unknown
5:05 AM 75.2 °F 57.2 °F 53% 29.73 in 5.0 mi SW 17.3 mph 36.8 mph N/A Thunderstorm Unknown
5:08 AM 75.2 °F 60.8 °F 61% 29.73 in 6.0 mi WSW 20.7 mph 36.8 mph N/A Thunderstorm Unknown
5:10 AM 73.4 °F 60.8 °F 65% 29.73 in 6.0 mi SW 19.6 mph 28.8 mph N/A   Overcast
6:00 AM 68.0 °F 62.6 °F 83% 29.79 in - SW 19.6 mph 35.7 mph N/A   Overcast
7:00 AM 66.2 °F 62.6 °F 88% 29.73 in - SSW 12.7 mph 18.4 mph N/A   Overcast
8:00 AM 68.0 °F 62.6 °F 83% 29.78 in - South 4.6 mph - N/A   Mostly Cloudy
9:00 AM 69.8 °F 64.4 °F 83% 29.78 in - West 5.8 mph - N/A   Scattered Clouds
10:00 AM 71.6 °F 62.6 °F 73% 29.78 in - SW 10.4 mph - N/A   Clear
11:00 AM 73.4 °F 64.4 °F 73% 29.77 in - SW 12.7 mph - N/A   Clear
12:00 PM 73.4 °F 64.4 °F 73% 29.77 in - WSW 12.7 mph 21.9 mph N/A   Partly Cloudy
1:00 PM 75.2 °F 66.2 °F 73% 29.78 in - WSW 17.3 mph - N/A   Clear
2:00 PM 78.8 °F 68.0 °F 69% 29.76 in - WSW 11.5 mph - N/A   Clear
3:00 PM 78.8 °F 69.8 °F 74% 29.76 in - WSW 8.1 mph - N/A   Clear
4:00 PM 78.8 °F 68.0 °F 69% 29.77 in - WSW 13.8 mph 21.9 mph N/A   Clear
5:00 PM 75.2 °F 68.0 °F 78% 29.78 in - SW 10.4 mph - N/A   Clear
6:00 PM 77.0 °F 68.0 °F 74% 29.77 in - WSW 8.1 mph - N/A   Clear
7:00 PM 75.2 °F 68.0 °F 78% 29.79 in - SW 12.7 mph - N/A   Clear
8:00 PM 73.4 °F 68.0 °F 83% 29.78 in - WSW 8.1 mph - N/A   Clear
9:00 PM 73.4 °F 68.0 °F 83% 29.78 in - West 9.2 mph - N/A   Partly Cloudy
10:00 PM 73.4 °F 68.0 °F 83% 29.80 in - SW 10.4 mph - N/A   Mostly Cloudy
11:00 PM 71.6 °F 68.0 °F 88% 29.80 in - West 9.2 mph - N/A   Mostly Cloudy